Flag for Guinea Weather past 2 weeks in Boké, Guinea

Now
81 °F

Haze.


Feels Like: 84 °F
Forecast: N/A
Wind: 7 mph from West

Location: Conakry / Gbessia

Current Time: Mar 6, 2015 at 10:28:31 PM

Latest Report: Mar 6, 2015 at 9:00 PM


Visibility: 3 mi

Pressure: 29.83 "Hg

Humidity: 70%

Dew point: 70 °F

Location of BokéLocation

Historic Weather in Boké — Graph

°F

Boké temperature yesterday

Maximum temperature yesterday: 86 °F (at 12:00 PM)
Minimum temperature yesterday: 75 °F (at 5:00 AM)
Average temperature yesterday: 81 °F

Past Weeks' High & Low Weather Summary

 TemperatureHumidityPressure
High95 °F (Feb 25, 3:00 PM)100% (Feb 22, 7:00 AM)32.84 "Hg (Feb 22, 7:00 AM)
Low43 °F (Feb 23, 3:00 AM)23% (Feb 25, 3:00 PM)29.71 "Hg (Feb 20, 4:00 PM)
Average81 °F74%29.86 "Hg
* Reported Feb 19 9:00 PM — Mar 6 9:00 PM, Boké, Weather by CustomWeather, © 2015

Note: Actual official high and low records may vary slightly from our data, if they occured in-between our weather recording intervals... More about our weather records

Advertising

Boké weather history for previous 24 hours

 ConditionsComfort  
Time TempWeatherWind HumidityBarometerVisibility
9:00 PM
Fri, Mar 6
81 °FHaze.7 mph70%29.83 "Hg3 mi
8:00 PM81 °FHaze.9 mph70%29.80 "Hg3 mi
7:00 PM82 °FHaze.12 mph62%29.77 "Hg3 mi
6:00 PM84 °FHaze.9 mph58%29.77 "Hg3 mi
5:00 PM86 °FHaze.12 mph59%29.74 "Hg3 mi
4:00 PM88 °FHaze.16 mph49%29.74 "Hg3 mi
3:00 PM90 °FHaze.14 mph41%29.77 "Hg3 mi
2:00 PM90 °FHaze.12 mph38%29.80 "Hg3 mi
1:00 PM90 °FHaze.14 mph36%29.83 "Hg4 mi
12:00 PM90 °FHaze.12 mph27%29.86 "Hg4 mi
11:00 AM86 °FHaze.7 mph25%29.89 "Hg4 mi
10:00 AM82 °FHaze.5 mph48%29.89 "Hg3 mi
9:00 AM79 °FHaze.5 mph61%29.89 "Hg3 mi
8:00 AM75 °FHaze.5 mph74%29.89 "Hg3 mi
7:00 AM75 °FHaze.5 mph74%29.86 "Hg4 mi
6:00 AM77 °FClear.5 mph69%29.83 "Hg10 mi
5:00 AM77 °FClear.2 mph74%29.83 "Hg10 mi
4:00 AM79 °FClear.2 mph70%29.86 "Hg10 mi
3:00 AM79 °FClear.5 mph74%29.86 "Hg10 mi
2:00 AM79 °FClear.5 mph70%29.86 "Hg10 mi
1:00 AM79 °FClear.5 mph70%29.89 "Hg10 mi
12:00 AM79 °FClear.5 mph65%29.89 "Hg10 mi
11:00 PM
Thu, Mar 5
81 °FClear.9 mph66%29.89 "Hg10 mi
10:00 PM81 °FClear.9 mph66%29.89 "Hg10 mi
Weather by CustomWeather, © 2015

See weather overviewHow to use our weather pages